www.pogodaiklimat.ru

Погода и климат >> Архив погоды >> Боливия >> Сан-Рамон


ПОГОДА в Сан-Рамоне

  • Прогноз погоды в Сан-Рамоне
  • Монитор погоды в Сан-Рамоне

АРХИВ ПОГОДЫ в Сан-Рамоне

Время (UTC), дата Ветер
(напр.,м/с)
 
Видим.   Явления Облачность Т
(С)
Тd
(С)
f
(%)
Тe
(С)
Тes
(С)
Комфортность P
(гПа)
Po
(гПа)
Тmin
(С)
Tmax
(С)
R
(мм)
R24
(мм)
S
(см)
12 8.09 СВ 2 8000 м дым 4/0
[Ci sp]
+24.8 +21.5 82 +32 +35 очень
душно
1014.3 998.2 +22.0
15 8.09 С 3 8000 м дым 4/0
[Ac trans Ci fib]
+33.3 +21.5 50 +41 +54 опасность
перегрева
1015.7 1000.0
18 8.09 СВ 3 8000 м осадки на расстоянии туман 4/4 750 м
[Cb cap Ci ing]
+36.6 +17.9 33 +40 +48 очень
душно
1013.4 997.9
21 8.09 С 3 8000 м дым 3/1 750 м
[Cu med, cong Ci sp]
+36.3 +14.9 28 +38 +39 очень
душно
1010.8 995.3 +37.2
12 9.09 штиль 0 7000 м дым 4/0
[Ci fib]
+23.6 +21.3 87 +30 +34 очень
душно
1012.7 996.6 +20.9
15 9.09 С 4 7000 м дым ясно +33.0 +21.1 50 +41 +52 опасность
перегрева
1013.8 998.0
18 9.09 С 5 5000 м дым 1/1 750 м
[Cu med, cong]
+35.7 +19.9 40 +42 +49 опасность
перегрева
1011.3 995.8
21 9.09 С 4 5000 м дым 1/1 750 м
[Cu med, cong]
+35.7 +19.2 38 +41 +42 опасность
перегрева
1008.9 993.4 +37.0
12 10.09 СВ 2 6000 м дым 5/0
[Ci sp]
+24.0 +21.1 84 +30 +34 очень
душно
1010.4 994.3 +20.4
15 10.09 С 6 6000 м дым 4/0
[Ci sp]
+36.6 +21.8 42 +44 +51 опасность
перегрева
1011.6 996.0
18 10.09 С 8 7000 м дым 5/5 600 м
[Cu med, cong]
+35.5 +21.0 43 +43 +44 опасность
перегрева
1010.2 994.5
21 10.09 С 3 7000 м дым 3/3 600 м
[Cu med, cong]
+35.5 +20.8 42 +42 +44 опасность
перегрева
1007.7 992.0 +37.0
12 11.09 С 3 7000 м дым 4/0
[Ci fib]
+25.3 +22.7 86 +33 +36 очень
душно
1010.6 994.5 +22.5
15 11.09 С 5 7000 м дым 9/0 2000 м
[Ac trans]
+33.1 +22.6 54 +43 +47 опасность
перегрева
1011.7 995.9
18 11.09 С 4 5000 м осадки на расстоянии туман 8/4 750 м
[Cb cap Ac trans Ci sp]
+35.6 +20.8 42 +42 +47 опасность
перегрева
1008.6 993.1
21 11.09 СЗ 3 7000 м дым {гроза} 9/1 750 м
[Cu med, cong Ac trans Cs]
+31.1 +22.4 60 +40 +41 очень
душно
1006.8 991.1 +36.8
12 12.09 штиль 0 7000 м дым 8/5 700 м
[Cb cap Cs]
+24.7 +22.9 90 +33 +35 очень
душно
1012.0 995.9 +22.2
15 12.09 СВ 4 6000 м гроза без осадков туман 9/5 700 м
[Cb cap Ac As Cs]
+29.1 +22.7 68 +38 +42 очень
душно
1013.0 997.1
18 12.09 ЮВ 5 8000 м дым 9/3 600 м
[Cu med, cong Ci]
+31.0 +24.2 67 +43 +48 опасность
перегрева
1010.8 995.0 5
21 12.09 ЮВ 5 8000 м дым 9/1 600 м
[Cu med, cong Ci]
+27.1 +22.0 74 +35 +36 очень
душно
1008.9 993.1 +31.5
12 13.09 ЮВ 3 8000 м дым 9/0
[Ci]
+20.0 +15.4 75 +23 +25 комфорт 1014.2 997.9 +17.3 5
15 13.09 ЮВ 6 8000 м дым 4/0
[Ci fib]
+26.5 +15.1 50 +29 +36 жарко 1014.6 998.6
18 13.09 ЮВ 2 8000 м дым 4/0
[Ci sp]
+31.1 +17.8 45 +35 +52 опасность
солнечного
удара
1011.8 996.0
21 13.09 ЮВ 2 8000 м дым 5/0
[Ci sp]
+32.1 +19.0 46 +37 +40 очень
душно
1009.7 994.0 +33.0
12 14.09 штиль 0 8000 м дым 4/0
[Ci fib]
+21.5 +18.3 82 +26 +31 душно 1011.7 995.4 +18.5
15 14.09 ЮВ 2 8000 м дым 4/0
[Ci fib]
+30.7 +17.9 46 +35 +52 опасность
солнечного
удара
1012.3 996.4
18 14.09 С 2 8000 м дым 4/0
[Ci fib]
+35.5 +20.1 41 +42 +57 опасность
перегрева
1010.1 994.4
21 14.09 С 2 8000 м дым 4/1 600 м
[Cu med, cong Ci fib]
+36.4 +19.5 37 +41 +43 опасность
перегрева
1007.7 992.0 +37.3

 

Местоположение метеостанции Сан-Рамон (Боливия): широта -13.30 долгота -64.70 высота над уровнем моря 140 м.

В архиве по умолчанию представлена погода в Сан-Рамоне за последнюю неделю. Архивные данные за месяц целиком и за предыдущие месяцы, начиная с января 2011 года, Вы можете получить, выбрав интересующий диапазон дат из раскрывающегося списка и нажав кнопку "Ввод!".


*Определитесь, кто Вы:
робот инопланетянин человек

Внимание! Время в таблицах - всемирное. Для получения местного времени необходимо прибавить поправку, которая равна -4 ч.

Смотрите также архив погоды в соседних городах и на ближайших метеорологических станциях:

Погода в Сан-Хоакине (Боливия) (29 км)
Погода в Магдалене (Боливия) (64 км)
Погода в Бауресе (Боливия) (93 км)
Погода в Санта-Ане (Боливия) (94 км)
Погода в Тринидаде (Боливия) (169 км)
Погода в Сан Игнасио де Moксосе (Боливия) (204 км)
Погода в Санта-Розе (Боливия) (257 км)
Погода в Сан-Борхе (Боливия) (291 км)
Погода в Риберальте (Боливия) (298 км)
Погода в Рейесе (Боливия) (311 км)

Пояснения к столбцам:

Ветер - указаны скорость ветра в м/с - средняя за 10 мин, порывы в срок и между сроками (в фигурных скобках) и направление, откуда дует ветер: С - северный, СВ - северо-восточный, В - восточный, ЮВ - юго-восточный, Ю - южный, ЮЗ - юго-западный, З - западный, СЗ - северо-западный.
Видимость - горизонтальная дальность видимости в метрах или километрах. При видимости от 1 до 10 км при отсутствии осадков обычно наблюдается дымка, при ухудшении видимости до 1 км и менее - туман. В сухую погоду видимость может ухудшаться дымом, пылью или мглою.
Явления - указаны атмосферные явления, наблюдавшиеся в срок или в последний час перед сроком; фигурными скобками обозначены явления, наблюдавшиеся между сроками (за 1-3 часа до срока); квадратными скобками обозначены град или гололедные отложения с указанием их диаметра в мм.
Облачность - указаны через наклонную черту общая и нижняя облачность в баллах и высота нижней границы облаков в метрах; квадратными скобками обозначены формы облаков: Ci - перистые, Cs - перисто-слоистые, Cc - перисто-кучевые, Ac - высококучевые, As - высокослоистые, Sc - слоисто-кучевые, Ns - слоисто-дождевые, Cu - кучевые, Cb - кучево-дождевые. Подробнее классификацию облаков см. в Атласе облаков (PDF).
T - Температура воздуха - температура, измеренная на высоте 2 м над землей.
Td - Температура точки росы - температура, при понижении до которой содержащийся в воздухе водяной пар достигнет насыщения.
f - Относительная влажность воздуха - влажноcть воздуха, измеренная на высоте 2 м над землей.
Te - Эффективная температура - температура, которую ощущает одетый по сезону человек в тени. Характеристика душности погоды. При расчете учитывается влияние влажности воздуха и скорости ветра на теплоощущения человека.
Tes - Эффективная температура на солнце - температура, которую ощущает человек, с поправкой на солнечный нагрев. Характеристика знойности погоды. Зависит от высоты солнца над горизонтом, облачности и скорости ветра. Ночью, в пасмурную погоду, а также при ветре 12 м/с и более поправка равна нулю.
P - Атмосферное давление - приведенное к уровню моря атмосферное давление.
Po - Атмосферное давление - измеренное на уровне метеостанции атмосферное давление.
Tmin - Минимальная температура - минимум температуры воздуха на высоте 2 м над землей.
Tmax - Максимальная температура - максимум температуры воздуха на высоте 2 м над землей.
R - Количество осадков - Количество выпавших осадков за период времени, мм. При наведении курсора мыши на число - период времени, за который выпало указанное количество осадков.
R24 - Количество осадков - Количество выпавших осадков за 24 часа, мм.
S - Снежный покров - Высота снежного покрова, см. При наведении курсора мыши на число - состояние снежного покрова и степень покрытия местности в баллах.